| time (UTC) | temp F | wind direction | speed MPH | gust MPH | rain 1hr in | rain 24hr in | rain mn in | humidity % | barometer mb |
| 20260508225002 | 67 | 258 | 0.0 | 0.0 | 0.00 | 0.00 | 0.00 | 72 | 1014.1 |
| 20260508224002 | 66 | 258 | 0.0 | 0.0 | 0.00 | 0.00 | 0.00 | 71 | 1014.0 |
| 20260508223504 | 66 | 258 | 0.0 | 0.0 | 0.00 | 0.00 | 0.00 | 69 | 1014.0 |
| 20260508223002 | 66 | 258 | 0.0 | 0.0 | 0.00 | 0.00 | 0.00 | 70 | 1014.0 |
| 20260508222502 | 66 | 258 | 0.0 | 1.0 | 0.00 | 0.00 | 0.00 | 69 | 1014.1 |
| 20260508222004 | 66 | 258 | 0.0 | 2.0 | 0.00 | 0.00 | 0.00 | 69 | 1014.1 |
| 20260508221502 | 67 | 234 | 0.0 | 2.0 | 0.00 | 0.00 | 0.00 | 69 | 1013.9 |
| 20260508221002 | 67 | 292 | 0.0 | 1.0 | 0.00 | 0.00 | 0.00 | 68 | 1014.1 |
| 20260508220006 | 67 | 292 | 0.0 | 2.0 | 0.00 | 0.00 | 0.00 | 65 | 1014.0 |
| 20260508215502 | 67 | 284 | 0.0 | 4.0 | 0.00 | 0.00 | 0.00 | 65 | 1013.9 |
| 20260508214502 | 67 | 300 | 1.0 | 3.0 | 0.00 | 0.00 | 0.00 | 61 | 1013.9 |
| 20260508213502 | 68 | 284 | 1.0 | 2.0 | 0.00 | 0.00 | 0.00 | 61 | 1013.9 |
| 20260508213002 | 68 | 286 | 1.0 | 2.0 | 0.00 | 0.00 | 0.00 | 60 | 1014.0 |
| 20260508212506 | 69 | 266 | 1.0 | 4.0 | 0.00 | 0.00 | 0.00 | 58 | 1014.0 |
| 20260508212003 | 69 | 283 | 1.0 | 4.0 | 0.00 | 0.00 | 0.00 | 56 | 1014.0 |
| 20260508211502 | 69 | 276 | 1.0 | 3.0 | 0.00 | 0.00 | 0.00 | 57 | 1014.1 |
| 20260508211002 | 69 | 241 | 1.0 | 4.0 | 0.00 | 0.00 | 0.00 | 58 | 1014.0 |
| 20260508210502 | 69 | 292 | 1.0 | 4.0 | 0.00 | 0.00 | 0.00 | 56 | 1014.1 |
| 20260508210006 | 69 | 279 | 1.0 | 4.0 | 0.00 | 0.00 | 0.00 | 57 | 1013.9 |
| 20260508205502 | 70 | 251 | 1.0 | 8.0 | 0.00 | 0.00 | 0.00 | 58 | 1013.9 |
| 20260508205002 | 70 | 293 | 1.0 | 7.0 | 0.00 | 0.00 | 0.00 | 58 | 1013.9 |
| 20260508204502 | 70 | 275 | 1.0 | 5.0 | 0.00 | 0.00 | 0.00 | 57 | 1014.0 |
| 20260508204005 | 70 | 284 | 1.0 | 3.0 | 0.00 | 0.00 | 0.00 | 56 | 1014.1 |
| 20260508203002 | 70 | 192 | 1.0 | 4.0 | 0.00 | 0.00 | 0.00 | 59 | 1014.1 |
| 20260508202005 | 70 | 259 | 1.0 | 6.0 | 0.00 | 0.00 | 0.00 | 55 | 1014.2 |
| 20260508201502 | 71 | 284 | 1.0 | 3.0 | 0.00 | 0.00 | 0.00 | 54 | 1014.2 |
| 20260508201002 | 71 | 213 | 1.0 | 3.0 | 0.00 | 0.00 | 0.00 | 58 | 1014.3 |
| 20260508200502 | 71 | 211 | 1.0 | 5.0 | 0.00 | 0.00 | 0.00 | 58 | 1014.3 |
| 20260508195502 | 71 | 288 | 1.0 | 4.0 | 0.00 | 0.00 | 0.00 | 56 | 1014.5 |
| 20260508195005 | 71 | 225 | 1.0 | 4.0 | 0.00 | 0.00 | 0.00 | 55 | 1014.5 |
| 20260508194502 | 71 | 173 | 1.0 | 4.0 | 0.00 | 0.00 | 0.00 | 54 | 1014.8 |
| 20260508193003 | 71 | 121 | 1.0 | 7.0 | 0.00 | 0.00 | 0.00 | 56 | 1015.1 |
| 20260508192502 | 72 | 301 | 1.0 | 7.0 | 0.00 | 0.00 | 0.00 | 52 | 1015.2 |
| 20260508192002 | 73 | 149 | 1.0 | 4.0 | 0.00 | 0.00 | 0.00 | 54 | 1015.1 |
| 20260508191004 | 72 | 195 | 1.0 | 7.0 | 0.00 | 0.00 | 0.00 | 54 | 1015.4 |
| 20260508190004 | 72 | 307 | 2.0 | 5.0 | 0.00 | 0.00 | 0.00 | 54 | 1015.4 |
| 20260508185503 | 71 | 152 | 2.0 | 8.0 | 0.00 | 0.00 | 0.00 | 56 | 1015.5 |
| 20260508185002 | 70 | 290 | 2.0 | 8.0 | 0.00 | 0.00 | 0.00 | 54 | 1015.5 |
| 20260508184502 | 70 | 355 | 1.0 | 7.0 | 0.00 | 0.00 | 0.00 | 52 | 1015.7 |
| 20260508184002 | 70 | 299 | 1.0 | 4.0 | 0.00 | 0.00 | 0.00 | 56 | 1015.8 |
| 20260508183504 | 70 | 283 | 1.0 | 4.0 | 0.00 | 0.00 | 0.00 | 57 | 1015.8 |
| 20260508183002 | 70 | 209 | 2.0 | 7.0 | 0.00 | 0.00 | 0.00 | 58 | 1015.8 |
| 20260508181503 | 70 | 182 | 2.0 | 8.0 | 0.00 | 0.00 | 0.00 | 57 | 1016.2 |
| 20260508181002 | 71 | 335 | 3.0 | 8.0 | 0.00 | 0.00 | 0.00 | 56 | 1016.0 |
| 20260508180505 | 71 | 319 | 3.0 | 9.0 | 0.00 | 0.00 | 0.00 | 58 | 1016.2 |
| 20260508180004 | 70 | 297 | 2.0 | 9.0 | 0.00 | 0.00 | 0.00 | 55 | 1016.3 |
| 20260508175502 | 70 | 263 | 1.0 | 5.0 | 0.00 | 0.00 | 0.00 | 55 | 1016.3 |
| 20260508174501 | 71 | 213 | 2.0 | 4.0 | 0.00 | 0.00 | 0.00 | 55 | 1016.4 |
| 20260508174001 | 71 | 182 | 2.0 | 6.0 | 0.00 | 0.00 | 0.00 | 57 | 1016.4 |
| 20260508173503 | 71 | 192 | 2.0 | 6.0 | 0.00 | 0.00 | 0.00 | 55 | 1016.5 |
| 20260508173001 | 70 | 205 | 2.0 | 5.0 | 0.00 | 0.00 | 0.00 | 55 | 1016.4 |
| 20260508171503 | 69 | 70 | 2.0 | 5.0 | 0.00 | 0.00 | 0.00 | 60 | 1016.6 |
| 20260508171003 | 69 | 163 | 2.0 | 5.0 | 0.00 | 0.00 | 0.00 | 57 | 1016.7 |
| 20260508165502 | 71 | 232 | 2.0 | 5.0 | 0.00 | 0.00 | 0.00 | 52 | 1017.0 |
| 20260508165000 | 72 | 190 | 2.0 | 4.0 | 0.00 | 0.00 | 0.00 | 57 | 1017.0 |
| 20260508163502 | 70 | 178 | 1.0 | 6.0 | 0.00 | 0.00 | 0.00 | 57 | 1017.2 |
| 20260508163001 | 71 | 130 | 1.0 | 4.0 | 0.00 | 0.00 | 0.00 | 50 | 1017.3 |
| 20260508162501 | 71 | 165 | 1.0 | 3.0 | 0.00 | 0.00 | 0.00 | 55 | 1017.5 |
| 20260508162001 | 71 | 321 | 2.0 | 6.0 | 0.00 | 0.00 | 0.00 | 55 | 1017.6 |
| 20260508161503 | 71 | 192 | 2.0 | 7.0 | 0.00 | 0.00 | 0.00 | 52 | 1017.6 |
| 20260508161000 | 71 | 197 | 2.0 | 6.0 | 0.00 | 0.00 | 0.00 | 55 | 1017.6 |
| 20260508160501 | 70 | 207 | 1.0 | 6.0 | 0.00 | 0.00 | 0.00 | 57 | 1017.6 |
| 20260508155501 | 70 | 213 | 2.0 | 4.0 | 0.00 | 0.00 | 0.00 | 50 | 1017.6 |
| 20260508155004 | 70 | 224 | 2.0 | 4.0 | 0.00 | 0.00 | 0.00 | 60 | 1017.7 |
| 20260508154501 | 69 | 233 | 2.0 | 5.0 | 0.00 | 0.00 | 0.00 | 55 | 1017.8 |
| 20260508154001 | 69 | 99 | 2.0 | 5.0 | 0.00 | 0.00 | 0.00 | 55 | 1017.8 |
| 20260508153502 | 69 | 217 | 2.0 | 5.0 | 0.00 | 0.00 | 0.00 | 58 | 1017.9 |
| 20260508153003 | 68 | 198 | 2.0 | 4.0 | 0.00 | 0.00 | 0.00 | 60 | 1018.0 |
| 20260508152501 | 68 | 190 | 2.0 | 4.0 | 0.00 | 0.00 | 0.00 | 61 | 1018.0 |
| 20260508152002 | 67 | 219 | 2.0 | 5.0 | 0.00 | 0.00 | 0.00 | 58 | 1017.9 |
| 20260508151501 | 67 | 296 | 2.0 | 5.0 | 0.00 | 0.00 | 0.00 | 57 | 1017.9 |
| 20260508150503 | 67 | 212 | 1.0 | 4.0 | 0.00 | 0.00 | 0.00 | 60 | 1018.1 |
| 20260508150003 | 67 | 287 | 2.0 | 6.0 | 0.00 | 0.00 | 0.00 | 57 | 1018.0 |
| 20260508145500 | 66 | 162 | 2.0 | 6.0 | 0.00 | 0.00 | 0.00 | 59 | 1017.9 |
| 20260508144501 | 65 | 190 | 1.0 | 6.0 | 0.00 | 0.00 | 0.00 | 61 | 1017.8 |
| 20260508144001 | 65 | 169 | 2.0 | 4.0 | 0.00 | 0.00 | 0.00 | 67 | 1017.8 |
| 20260508143500 | 64 | 150 | 3.0 | 6.0 | 0.00 | 0.00 | 0.00 | 70 | 1017.8 |
| 20260508143002 | 63 | 215 | 2.0 | 5.0 | 0.00 | 0.00 | 0.00 | 69 | 1017.8 |
| 20260508142501 | 62 | 204 | 1.0 | 5.0 | 0.00 | 0.00 | 0.00 | 70 | 1017.8 |
| 20260508142001 | 61 | 173 | 1.0 | 4.0 | 0.00 | 0.00 | 0.00 | 73 | 1017.9 |
| 20260508141500 | 60 | 138 | 1.0 | 4.0 | 0.00 | 0.00 | 0.00 | 72 | 1017.9 |
| 20260508141001 | 60 | 229 | 1.0 | 4.0 | 0.00 | 0.00 | 0.00 | 73 | 1018.0 |
| 20260508140502 | 59 | 172 | 1.0 | 4.0 | 0.00 | 0.00 | 0.00 | 76 | 1018.1 |
| 20260508140003 | 59 | 215 | 1.0 | 2.0 | 0.00 | 0.00 | 0.00 | 78 | 1018.1 |
| 20260508135500 | 58 | 108 | 1.0 | 4.0 | 0.00 | 0.08 | 0.00 | 79 | 1018.2 |
| 20260508134501 | 57 | 76 | 1.0 | 3.0 | 0.00 | 0.08 | 0.00 | 79 | 1018.2 |
| 20260508134001 | 57 | 175 | 1.0 | 3.0 | 0.00 | 0.08 | 0.00 | 80 | 1018.2 |
| 20260508133502 | 56 | 216 | 1.0 | 3.0 | 0.00 | 0.08 | 0.00 | 82 | 1018.1 |
| 20260508133003 | 56 | 198 | 1.0 | 3.0 | 0.00 | 0.08 | 0.00 | 82 | 1018.3 |
| 20260508132501 | 55 | 146 | 1.0 | 3.0 | 0.00 | 0.08 | 0.00 | 84 | 1018.2 |
| 20260508132001 | 55 | 111 | 0.0 | 3.0 | 0.00 | 0.08 | 0.00 | 85 | 1018.2 |
| 20260508131501 | 54 | 113 | 0.0 | 3.0 | 0.00 | 0.08 | 0.00 | 84 | 1018.1 |
| 20260508131002 | 53 | 355 | 0.0 | 2.0 | 0.00 | 0.08 | 0.00 | 91 | 1018.1 |
| 20260508130501 | 53 | 95 | 1.0 | 2.0 | 0.00 | 0.08 | 0.00 | 90 | 1018.1 |
| 20260508130003 | 53 | 104 | 0.0 | 2.0 | 0.00 | 0.08 | 0.00 | 92 | 1018.0 |
| 20260508125503 | 53 | 83 | 1.0 | 4.0 | 0.00 | 0.13 | 0.00 | 93 | 1017.9 |
| 20260508124501 | 52 | 80 | 0.0 | 2.0 | 0.00 | 0.13 | 0.00 | 96 | 1017.7 |
| 20260508124004 | 52 | 293 | 0.0 | 1.0 | 0.00 | 0.13 | 0.00 | 96 | 1017.7 |
| 20260508123501 | 52 | 35 | 0.0 | 3.0 | 0.00 | 0.13 | 0.00 | 96 | 1017.7 |
| 20260508123001 | 51 | 345 | 0.0 | 3.0 | 0.00 | 0.13 | 0.00 | 97 | 1017.6 |
| 20260508122001 | 51 | 63 | 0.0 | 2.0 | 0.00 | 0.13 | 0.00 | 96 | 1017.6 |
| 20260508121501 | 50 | 45 | 0.0 | 1.0 | 0.00 | 0.13 | 0.00 | 97 | 1017.4 |
| 20260508121001 | 50 | 74 | 0.0 | 2.0 | 0.00 | 0.13 | 0.00 | 96 | 1017.4 |
| 20260508120502 | 50 | 84 | 0.0 | 2.0 | 0.00 | 0.13 | 0.00 | 96 | 1017.3 |
| 20260508120003 | 50 | 76 | 0.0 | 2.0 | 0.00 | 0.13 | 0.00 | 97 | 1017.3 |
| 20260508115501 | 49 | 70 | 0.0 | 2.0 | 0.00 | 0.34 | 0.00 | 96 | 1017.2 |
| 20260508115001 | 49 | 70 | 0.0 | 2.0 | 0.00 | 0.34 | 0.00 | 97 | 1017.1 |
| 20260508114501 | 49 | 76 | 0.0 | 1.0 | 0.00 | 0.34 | 0.00 | 96 | 1017.0 |
| 20260508113001 | 48 | 105 | 0.0 | 3.0 | 0.00 | 0.34 | 0.00 | 96 | 1016.9 |
| 20260508112503 | 48 | 105 | 0.0 | 3.0 | 0.00 | 0.34 | 0.00 | 96 | 1016.7 |
| 20260508112001 | 48 | 87 | 0.0 | 1.0 | 0.00 | 0.34 | 0.00 | 95 | 1016.5 |
| 20260508111001 | 47 | 87 | 0.0 | 0.0 | 0.00 | 0.34 | 0.00 | 94 | 1016.4 |
| 20260508105501 | 47 | 90 | 0.0 | 1.0 | 0.00 | 0.49 | 0.00 | 94 | 1016.3 |
| 20260508105000 | 47 | 63 | 0.0 | 0.0 | 0.00 | 0.49 | 0.00 | 95 | 1016.1 |
| 20260508103501 | 48 | 63 | 0.0 | 0.0 | 0.00 | 0.49 | 0.00 | 95 | 1015.8 |
| 20260508102501 | 48 | 63 | 0.0 | 0.0 | 0.00 | 0.49 | 0.00 | 95 | 1015.7 |
| 20260508102003 | 48 | 63 | 0.0 | 0.0 | 0.00 | 0.49 | 0.00 | 95 | 1015.7 |
| 20260508101501 | 47 | 63 | 0.0 | 0.0 | 0.00 | 0.49 | 0.00 | 94 | 1015.6 |
| 20260508101002 | 47 | 63 | 0.0 | 0.0 | 0.00 | 0.49 | 0.00 | 93 | 1015.6 |
| 20260508100500 | 48 | 63 | 0.0 | 0.0 | 0.00 | 0.49 | 0.00 | 94 | 1015.5 |
| 20260508100003 | 48 | 63 | 0.0 | 0.0 | 0.00 | 0.49 | 0.00 | 93 | 1015.5 |
| 20260508095502 | 47 | 63 | 0.0 | 0.0 | 0.00 | 0.57 | 0.00 | 93 | 1015.2 |
| 20260508095001 | 48 | 63 | 0.0 | 0.0 | 0.00 | 0.57 | 0.00 | 93 | 1015.3 |
| 20260508094501 | 48 | 63 | 0.0 | 0.0 | 0.00 | 0.57 | 0.00 | 93 | 1015.2 |
| 20260508094001 | 48 | 63 | 0.0 | 0.0 | 0.00 | 0.57 | 0.00 | 93 | 1015.1 |
| 20260508093503 | 48 | 63 | 0.0 | 0.0 | 0.00 | 0.57 | 0.00 | 93 | 1015.1 |
| 20260508093001 | 48 | 63 | 0.0 | 0.0 | 0.00 | 0.57 | 0.00 | 94 | 1014.9 |
| 20260508092501 | 48 | 63 | 0.0 | 0.0 | 0.00 | 0.57 | 0.00 | 94 | 1015.0 |
| 20260508092002 | 47 | 71 | 0.0 | 0.0 | 0.00 | 0.57 | 0.00 | 93 | 1015.1 |
| 20260508091501 | 47 | 71 | 0.0 | 0.0 | 0.00 | 0.57 | 0.00 | 92 | 1015.0 |
| 20260508091002 | 47 | 71 | 0.0 | 0.0 | 0.00 | 0.57 | 0.00 | 92 | 1015.0 |
| 20260508090501 | 47 | 71 | 0.0 | 0.0 | 0.00 | 0.57 | 0.00 | 91 | 1014.9 |
| 20260508090003 | 47 | 71 | 0.0 | 0.0 | 0.00 | 0.57 | 0.00 | 91 | 1014.9 |
| 20260508085502 | 48 | 71 | 0.0 | 0.0 | 0.00 | 0.77 | 0.00 | 91 | 1014.8 |
| 20260508085000 | 48 | 71 | 0.0 | 0.0 | 0.00 | 0.77 | 0.00 | 91 | 1014.8 |
| 20260508084500 | 48 | 71 | 0.0 | 0.0 | 0.00 | 0.77 | 0.00 | 91 | 1014.9 |
| 20260508084000 | 48 | 71 | 0.0 | 0.0 | 0.00 | 0.77 | 0.00 | 91 | 1014.8 |
| 20260508083503 | 48 | 71 | 0.0 | 0.0 | 0.00 | 0.77 | 0.00 | 91 | 1014.7 |
| 20260508083002 | 48 | 71 | 0.0 | 0.0 | 0.00 | 0.77 | 0.00 | 91 | 1014.8 |
| 20260508082501 | 48 | 71 | 0.0 | 0.0 | 0.00 | 0.77 | 0.00 | 91 | 1014.7 |
| 20260508080501 | 48 | 71 | 0.0 | 0.0 | 0.00 | 0.77 | 0.00 | 91 | 1014.6 |
| 20260508080004 | 49 | 71 | 0.0 | 0.0 | 0.00 | 0.77 | 0.00 | 90 | 1014.6 |
| 20260508074501 | 49 | 71 | 0.0 | 0.0 | 0.00 | 1.04 | 0.00 | 90 | 1014.8 |
| 20260508074004 | 49 | 71 | 0.0 | 0.0 | 0.00 | 1.04 | 0.00 | 91 | 1014.7 |
| 20260508073500 | 49 | 71 | 0.0 | 0.0 | 0.00 | 1.04 | 0.00 | 91 | 1014.8 |
| 20260508073001 | 49 | 71 | 0.0 | 0.0 | 0.00 | 1.04 | 0.00 | 90 | 1014.7 |
| 20260508072502 | 49 | 71 | 0.0 | 0.0 | 0.00 | 1.04 | 0.00 | 90 | 1014.8 |
| 20260508072001 | 49 | 71 | 0.0 | 0.0 | 0.00 | 1.04 | 0.00 | 90 | 1014.8 |
| 20260508071501 | 49 | 71 | 0.0 | 0.0 | 0.00 | 1.04 | 0.00 | 89 | 1014.7 |
| 20260508071000 | 49 | 71 | 0.0 | 0.0 | 0.00 | 1.04 | 0.00 | 89 | 1014.8 |
| 20260508070502 | 49 | 71 | 0.0 | 0.0 | 0.00 | 1.04 | 0.00 | 89 | 1014.7 |
| 20260508070003 | 50 | 71 | 0.0 | 0.0 | 0.00 | 1.04 | 0.00 | 89 | 1014.6 |
| 20260508065501 | 50 | 71 | 0.0 | 0.0 | 0.00 | 1.31 | 0.00 | 89 | 1014.5 |
| 20260508065003 | 50 | 71 | 0.0 | 0.0 | 0.00 | 1.31 | 0.00 | 89 | 1014.4 |
| 20260508063501 | 50 | 71 | 0.0 | 0.0 | 0.00 | 1.31 | 0.00 | 89 | 1014.5 |
| 20260508063002 | 50 | 71 | 0.0 | 0.0 | 0.00 | 1.31 | 0.00 | 89 | 1014.4 |
| 20260508062501 | 51 | 71 | 0.0 | 0.0 | 0.00 | 1.31 | 0.00 | 89 | 1014.3 |
| 20260508062001 | 51 | 71 | 0.0 | 0.0 | 0.00 | 1.31 | 0.00 | 89 | 1014.5 |
| 20260508061002 | 51 | 71 | 0.0 | 0.0 | 0.00 | 1.31 | 0.00 | 89 | 1014.4 |
| 20260508060501 | 51 | 71 | 0.0 | 0.0 | 0.00 | 1.31 | 0.00 | 89 | 1014.4 |
| 20260508060002 | 51 | 71 | 0.0 | 0.0 | 0.00 | 1.31 | 0.00 | 89 | 1014.4 |
| 20260508055500 | 51 | 71 | 0.0 | 0.0 | 0.00 | 1.49 | 0.00 | 88 | 1014.5 |
| 20260508055001 | 52 | 71 | 0.0 | 0.0 | 0.00 | 1.49 | 0.00 | 88 | 1014.6 |
| 20260508054500 | 52 | 71 | 0.0 | 0.0 | 0.00 | 1.49 | 0.00 | 88 | 1014.5 |
| 20260508053959 | 52 | 71 | 0.0 | 0.0 | 0.00 | 1.49 | 0.00 | 88 | 1014.5 |
| 20260508053459 | 52 | 71 | 0.0 | 0.0 | 0.00 | 1.49 | 0.00 | 88 | 1014.5 |
| 20260508053001 | 52 | 71 | 0.0 | 0.0 | 0.00 | 1.49 | 0.00 | 88 | 1014.5 |
| 20260508052000 | 53 | 71 | 0.0 | 0.0 | 0.00 | 1.49 | 0.00 | 87 | 1014.7 |
| 20260508051002 | 53 | 71 | 0.0 | 0.0 | 0.00 | 1.49 | 0.00 | 86 | 1014.5 |
| 20260508050500 | 53 | 71 | 0.0 | 0.0 | 0.00 | 1.49 | 0.00 | 86 | 1014.5 |
| 20260508050005 | 53 | 71 | 0.0 | 0.0 | 0.00 | 1.49 | 0.00 | 86 | 1014.4 |
| 20260508045501 | 53 | 71 | 0.0 | 0.0 | 0.00 | 1.70 | 0.00 | 86 | 1014.5 |
| 20260508044503 | 54 | 71 | 0.0 | 0.0 | 0.00 | 1.70 | 0.00 | 86 | 1014.3 |
| 20260508044001 | 54 | 71 | 0.0 | 0.0 | 0.00 | 1.70 | 0.00 | 86 | 1014.2 |
| 20260508043501 | 54 | 71 | 0.0 | 0.0 | 0.00 | 1.70 | 0.00 | 85 | 1014.1 |
| 20260508043001 | 54 | 71 | 0.0 | 0.0 | 0.00 | 1.70 | 0.00 | 85 | 1014.2 |
| 20260508042503 | 55 | 71 | 0.0 | 0.0 | 0.00 | 1.70 | 0.00 | 85 | 1014.2 |
| 20260508042001 | 55 | 71 | 0.0 | 0.0 | 0.00 | 1.70 | 0.00 | 85 | 1014.1 |
| 20260508041003 | 55 | 71 | 0.0 | 0.0 | 0.00 | 1.70 | 0.00 | 85 | 1013.8 |
| 20260508040501 | 55 | 71 | 0.0 | 0.0 | 0.00 | 1.70 | 0.00 | 85 | 1013.7 |
| 20260508040011 | 55 | 71 | 0.0 | 0.0 | 0.00 | 1.70 | 0.00 | 85 | 1013.7 |
| 20260508034503 | 56 | 71 | 0.0 | 0.0 | 0.00 | 1.70 | 1.70 | 84 | 1013.9 |
| 20260508034005 | 56 | 71 | 0.0 | 0.0 | 0.00 | 1.70 | 1.70 | 84 | 1014.1 |
| 20260508033503 | 56 | 71 | 0.0 | 0.0 | 0.00 | 1.70 | 1.70 | 84 | 1014.0 |
| 20260508033003 | 56 | 71 | 0.0 | 0.0 | 0.00 | 1.70 | 1.70 | 83 | 1013.9 |
| 20260508031502 | 57 | 71 | 0.0 | 0.0 | 0.00 | 1.70 | 1.70 | 83 | 1013.8 |
| 20260508031003 | 57 | 71 | 0.0 | 0.0 | 0.00 | 1.70 | 1.70 | 83 | 1013.7 |
| 20260508030503 | 58 | 71 | 0.0 | 0.0 | 0.00 | 1.70 | 1.70 | 82 | 1013.7 |
| 20260508030006 | 58 | 71 | 0.0 | 0.0 | 0.00 | 1.70 | 1.70 | 81 | 1013.6 |
| 20260508025502 | 58 | 71 | 0.0 | 0.0 | 0.00 | 1.71 | 1.70 | 80 | 1013.6 |
| 20260508024502 | 59 | 71 | 0.0 | 0.0 | 0.00 | 1.71 | 1.70 | 80 | 1013.5 |
| 20260508023502 | 59 | 71 | 0.0 | 0.0 | 0.00 | 1.71 | 1.70 | 80 | 1013.5 |
| 20260508023002 | 59 | 71 | 0.0 | 0.0 | 0.00 | 1.71 | 1.70 | 79 | 1013.3 |
| 20260508022502 | 60 | 71 | 0.0 | 0.0 | 0.00 | 1.71 | 1.70 | 79 | 1013.2 |
| 20260508021502 | 60 | 71 | 0.0 | 0.0 | 0.00 | 1.71 | 1.70 | 78 | 1013.3 |
| 20260508021002 | 61 | 71 | 0.0 | 0.0 | 0.00 | 1.71 | 1.70 | 77 | 1013.1 |
| 20260508020502 | 61 | 71 | 0.0 | 0.0 | 0.00 | 1.71 | 1.70 | 77 | 1013.0 |
| 20260508020007 | 61 | 71 | 0.0 | 0.0 | 0.00 | 1.71 | 1.70 | 75 | 1013.0 |
| 20260508015003 | 62 | 71 | 0.0 | 0.0 | 0.00 | 1.90 | 1.70 | 75 | 1012.7 |
| 20260508014502 | 62 | 71 | 0.0 | 1.0 | 0.00 | 1.90 | 1.70 | 74 | 1012.6 |
| 20260508014006 | 62 | 71 | 0.0 | 1.0 | 0.00 | 1.90 | 1.70 | 74 | 1012.5 |
| 20260508013503 | 63 | 57 | 0.0 | 2.0 | 0.00 | 1.90 | 1.70 | 74 | 1012.3 |
| 20260508013002 | 63 | 103 | 0.0 | 2.0 | 0.00 | 1.90 | 1.70 | 74 | 1012.3 |
| 20260508012505 | 63 | 72 | 1.0 | 3.0 | 0.00 | 1.90 | 1.70 | 74 | 1012.1 |
| 20260508012003 | 64 | 71 | 0.0 | 3.0 | 0.00 | 1.90 | 1.70 | 71 | 1011.9 |
| 20260508011503 | 64 | 109 | 0.0 | 3.0 | 0.00 | 1.90 | 1.70 | 70 | 1011.9 |
| 20260508011003 | 65 | 67 | 0.0 | 2.0 | 0.00 | 1.90 | 1.70 | 71 | 1011.8 |
| 20260508010505 | 65 | 67 | 1.0 | 2.0 | 0.00 | 1.90 | 1.70 | 71 | 1011.7 |
| 20260508010004 | 65 | 5 | 1.0 | 7.0 | 0.00 | 1.90 | 1.70 | 69 | 1011.4 |
| 20260508005501 | 65 | 5 | 2.0 | 7.0 | 0.00 | 2.32 | 1.70 | 69 | 1011.2 |
| 20260508005001 | 65 | 333 | 2.0 | 5.0 | 0.00 | 2.32 | 1.70 | 68 | 1011.3 |
| 20260508004503 | 66 | 349 | 2.0 | 7.0 | 0.00 | 2.32 | 1.70 | 69 | 1011.1 |
| 20260508004002 | 66 | 284 | 3.0 | 8.0 | 0.00 | 2.32 | 1.70 | 68 | 1011.0 |
| 20260508003501 | 66 | 309 | 4.0 | 10.0 | 0.00 | 2.32 | 1.70 | 68 | 1010.9 |
| 20260508003001 | 67 | 263 | 3.0 | 10.0 | 0.00 | 2.32 | 1.70 | 67 | 1010.9 |
| 20260508002503 | 67 | 286 | 4.0 | 9.0 | 0.00 | 2.32 | 1.70 | 67 | 1010.6 |
| 20260508002005 | 67 | 252 | 4.0 | 10.0 | 0.00 | 2.32 | 1.70 | 66 | 1010.6 |
| 20260508001501 | 68 | 263 | 2.0 | 10.0 | 0.00 | 2.32 | 1.70 | 64 | 1010.5 |
| 20260508001004 | 68 | 290 | 2.0 | 10.0 | 0.00 | 2.32 | 1.70 | 64 | 1010.4 |
| 20260508000504 | 68 | 294 | 3.0 | 10.0 | 0.00 | 2.32 | 1.70 | 63 | 1010.3 |
| 20260507235503 | 69 | 304 | 3.0 | 9.0 | 0.00 | 2.33 | 1.70 | 63 | 1010.0 |
| 20260507235001 | 69 | 329 | 3.0 | 9.0 | 0.00 | 2.33 | 1.70 | 63 | 1010.0 |
| 20260507234501 | 69 | 349 | 3.0 | 8.0 | 0.00 | 2.33 | 1.70 | 63 | 1009.9 |
| 20260507234001 | 70 | 282 | 3.0 | 9.0 | 0.00 | 2.33 | 1.70 | 64 | 1009.7 |
| 20260507233503 | 70 | 325 | 3.0 | 13.0 | 0.00 | 2.33 | 1.70 | 64 | 1009.7 |
| 20260507233001 | 70 | 315 | 3.0 | 15.0 | 0.00 | 2.33 | 1.70 | 64 | 1009.5 |
| 20260507232001 | 71 | 300 | 2.0 | 5.0 | 0.00 | 2.33 | 1.70 | 65 | 1009.4 |
| 20260507231501 | 71 | 319 | 2.0 | 4.0 | 0.00 | 2.33 | 1.70 | 65 | 1009.3 |
| 20260507231001 | 71 | 299 | 3.0 | 12.0 | 0.00 | 2.33 | 1.70 | 64 | 1009.4 |
| 20260507230501 | 71 | 292 | 3.0 | 12.0 | 0.00 | 2.33 | 1.70 | 65 | 1009.2 |